User: anonymous   Login
Location: Unspecified
(0.0000°N, 0.0000°E)
Time: 06:54:10
(UTC+00:00)
Language:

TBA - TO BE ASSIGNED - Orbit

View from above orbital plane
View from above orbital plane
View from above satellite
View from above satellite

Ground track
Ground track

The orbit is defined by the following mean orbital elements,

1 67471U          26145.36184333 +.00000000 +00000-0 +42590-3 0 00000
2 67471  43.0024 132.6054 0002051 286.2779  73.7847 15.27587627    06
Epoch (UTC): 25 May 2026 08:41:03
Eccentricity: 0.0002051
inclination: 43.0024°
perigee height: 482 km
apogee height: 484 km
right ascension of ascending node: 132.6054°
argument of perigee: 286.2779°
revolutions per day: 15.27587627
mean anomaly at epoch: 73.7847°

The dashed part of the orbit path shows where the satellite is in the earth's shadow,  

DLR